Temperature
29 26 26 26 27 28 28 29 28 29 29 28 27 27 27 27 27 26 25 25 25 25 24 24 24 23 23 22 22 21 21 20 20 20 19 19 19 19 19 19 19 18 18 18
26 26 27 28 29 30 29 29 29 29 30 28 27 26 26 27 26 26 26 25 25 25 24 24 24 23 23 22 22 21 21 21 20 20 20 20 19 19 19 19 19 19 18 18
26 27 29 30 30 30 29 29 29 29 29 28 27 26 26 26 27 27 26 26 25 25 24 24 24 23 23 22 22 22 21 21 20 20 20 19 19 19 19 19 19 19 18 18
27 28 30 30 30 30 28 30 30 29 27 25 27 24 25 25 25 26 26 26 25 25 25 24 24 23 23 23 22 22 21 21 21 20 20 19 19 19 19 19 19 19 18 18
27 29 29 30 30 31 30 30 30 29 27 25 25 24 24 24 25 25 25 26 26 25 25 25 24 24 24 23 22 22 21 21 21 20 20 19 19 19 19 19 19 19 19 18
27 29 29 30 31 31 31 29 27 24 23 24 25 24 24 23 25 25 26 26 26 26 25 25 24 24 23 23 22 22 22 21 21 20 20 20 19 19 19 19 19 19 19 19
27 28 29 31 30 30 28 24 24 24 22 23 24 24 23 25 25 26 26 26 26 26 25 25 24 24 24 23 23 22 22 21 21 21 20 20 20 19 19 19 19 19 19 19
26 25 28 30 29 28 28 24 23 24 24 23 24 25 25 26 27 28 27 27 26 26 26 25 25 24 24 23 23 22 22 22 21 21 21 20 20 20 19 19 19 19 19 19
24 25 28 29 30 29 29 25 23 22 23 23 23 25 25 26 26 26 26 26 26 26 26 25 25 25 24 24 23 23 22 22 21 21 21 20 20 20 20 19 19 19 19 19
24 26 26 28 30 29 28 26 22 22 23 23 24 24 23 25 25 25 25 25 26 26 26 25 25 25 24 24 23 23 22 22 22 21 21 21 20 20 20 20 19 19 19 19
24 24 25 27 28 28 28 27 23 20 21 22 23 23 25 24 24 24 25 26 26 26 26 25 25 25 24 24 23 23 23 22 22 21 21 21 21 20 20 20 19 19 19 19
23 21 23 25 26 28 27 26 23 23 23 20 21 23 26 25 25 25 25 26 26 26 26 26 25 25 24 24 23 23 23 22 22 22 21 21 21 20 20 20 19 19 19 19
23 21 22 23 23 25 26 26 24 21 20 20 21 24 25 24 24 26 26 26 26 26 26 25 25 24 24 24 23 23 23 23 22 22 21 21 21 20 20 20 19 19 19 19
22 20 21 22 23 24 25 26 26 23 21 22 22 24 24 24 24 24 26 26 26 25 25 25 25 24 24 24 24 23 23 23 22 22 21 21 21 20 20 20 19 19 19 19
20 20 22 22 24 25 26 26 26 25 23 23 24 24 24 23 24 24 25 26 25 25 25 25 24 24 24 24 24 23 23 23 22 22 21 21 21 20 20 20 19 19 19 19
18 20 20 21 24 24 25 26 26 26 25 25 24 23 23 23 24 24 24 24 24 24 24 24 24 24 24 24 24 23 23 22 22 22 21 21 21 20 20 20 19 19 19 18
18 19 19 19 21 23 23 24 25 24 24 24 23 22 22 22 22 22 23 23 23 24 24 24 24 24 24 23 23 23 23 23 22 22 21 21 20 20 20 19 19 19 19 18
18 17 16 18 21 22 21 23 24 23 23 23 22 22 22 21 22 23 23 23 23 23 24 24 23 23 23 23 23 23 22 22 22 22 21 21 20 20 20 19 19 19 18 18
17 17 17 17 19 20 21 23 23 22 21 22 21 21 21 22 21 21 22 23 23 23 23 23 23 23 23 23 22 22 22 22 21 21 21 21 20 20 19 19 19 19 18 18
16 16 16 17 19 19 20 22 24 22 20 21 21 20 20 21 19 19 21 22 22 23 23 22 22 23 23 22 22 22 21 21 21 21 20 20 20 19 19 19 18 18 18 18
17 16 16 17 17 18 20 21 22 21 19 20 20 20 20 19 20 21 21 21 22 22 22 22 22 22 21 21 21 21 21 21 21 20 20 20 19 19 19 18 18 18 17 17
16 16 16 15 17 17 19 20 19 18 19 19 20 20 20 20 20 20 20 20 20 20 20 21 21 21 21 21 21 21 20 20 20 20 19 19 19 18 18 18 18 17 17 17
15 15 14 15 16 17 18 18 19 19 19 19 19 19 20 19 19 20 20 20 20 20 20 20 20 20 20 20 20 20 19 19 19 19 19 18 18 18 18 17 17 17 16 16
15 15 14 14 15 16 17 18 18 19 19 19 19 18 19 18 19 19 19 19 19 19 19 19 19 19 19 19 19 19 18 18 18 18 18 18 18 17 17 17 17 16 16 16
14 14 13 14 14 16 16 17 17 18 18 18 18 18 18 18 18 18 18 18 18 18 18 18 18 18 18 18 18 18 18 18 18 17 17 17 17 17 16 16 16 16 16 15
13 13 13 13 14 14 15 16 17 17 17 17 17 17 17 17 17 17 18 18 17 17 17 17 18 17 17 17 17 17 17 17 17 17 17 16 16 16 16 16 15 15 15 15
Wind_Speed
4 3 5 9 8 8 6 4 4 4 5 6 6 7 9 11 13 13 12 12 13 13 11 12 13 13 12 10 10 10 10 8 6 4 3 3 3 3 3 4 7 8 8 7
6 5 12 10 8 5 4 2 2 1 3 5 4 3 6 9 14 17 17 15 14 11 11 12 12 12 12 12 11 10 10 9 8 5 4 3 3 3 3 3 4 7 7 7
7 10 8 6 6 5 3 3 3 3 2 3 6 2 3 4 6 9 13 14 15 17 17 15 14 12 12 12 12 12 10 9 8 7 4 3 2 1 1 2 3 4 6 7
7 9 7 6 6 4 4 5 3 3 5 1 3 2 6 4 4 8 11 12 14 14 14 14 14 14 14 13 12 10 10 9 8 8 6 6 5 4 4 3 3 3 5 6
7 5 5 6 7 4 6 3 2 3 4 2 2 3 7 3 5 9 12 14 15 15 16 16 16 15 14 12 11 10 10 9 8 8 8 7 5 4 2 2 3 3 3 4
8 6 5 6 6 4 2 4 7 6 6 1 4 4 6 6 10 10 11 12 14 15 15 14 13 12 10 11 11 10 10 8 8 8 7 8 7 6 5 4 4 3 2 2
7 8 5 3 3 5 4 6 5 5 5 4 4 3 8 9 10 11 13 13 14 14 14 14 13 13 12 13 12 11 11 9 8 8 8 8 8 7 7 6 5 5 3 2
4 8 6 3 5 5 3 10 8 5 5 5 3 3 7 6 6 8 11 12 13 13 13 14 15 15 14 14 13 12 11 10 9 9 8 7 7 5 5 5 4 5 4 4
7 8 8 6 5 7 4 4 10 8 2 0 4 3 5 3 3 5 8 11 13 13 13 14 14 14 14 14 13 13 13 11 10 10 8 7 7 6 5 5 4 4 4 4
9 6 8 6 2 1 8 8 7 6 4 1 4 3 4 4 3 4 8 10 12 12 12 12 13 13 13 12 11 12 12 12 10 10 9 8 7 7 6 5 5 4 4 3
5 5 6 4 1 4 1 3 6 6 7 7 3 7 7 9 7 6 8 11 12 13 14 13 11 11 12 11 11 11 11 10 10 10 8 8 7 7 6 6 6 5 4 4
1 5 3 6 6 4 4 5 7 5 4 6 5 7 6 7 6 7 7 9 10 11 11 10 11 10 10 10 10 11 11 11 10 9 8 8 7 7 6 6 6 6 5 5
3 6 2 7 8 7 3 1 4 5 5 5 5 7 3 3 4 5 8 9 9 9 8 8 9 10 10 10 11 11 11 11 10 9 9 8 7 7 7 6 5 5 5 5
4 4 5 6 6 4 5 6 1 5 3 5 7 7 3 3 5 5 7 10 10 9 9 9 8 8 10 10 11 11 11 10 10 10 10 9 9 8 7 6 6 6 6 5
6 4 1 2 4 3 4 6 5 2 6 7 8 8 7 6 7 7 7 9 10 9 10 11 10 9 8 9 9 10 10 10 10 10 10 10 9 8 7 6 6 5 5 5
5 3 4 5 6 7 6 6 5 3 2 3 2 2 4 4 5 6 6 9 9 9 9 9 8 8 8 8 8 9 10 10 10 11 10 9 8 8 7 7 6 5 5 5
3 4 4 3 7 6 5 4 2 2 2 2 3 4 1 5 7 8 8 8 7 7 7 7 6 6 6 6 7 8 8 9 10 10 9 9 9 8 8 7 6 6 5 4
4 3 2 1 4 5 8 4 1 3 4 2 2 1 3 5 5 5 6 7 6 5 5 5 5 4 4 3 4 5 5 7 9 9 9 9 9 9 8 7 7 6 4 5
7 7 4 2 2 7 7 5 2 2 5 4 3 4 4 5 7 6 3 4 5 5 4 4 5 6 5 4 3 4 4 5 6 7 8 9 9 9 9 8 7 5 5 4
4 6 5 4 3 6 6 7 4 4 2 4 2 4 2 5 4 1 1 3 5 5 4 3 4 5 5 4 4 5 4 5 6 6 6 7 8 9 9 8 7 5 5 5
3 2 4 5 5 7 5 7 5 2 5 4 1 4 3 2 4 4 2 4 5 4 5 5 5 4 3 2 4 5 4 4 5 5 5 5 6 7 8 6 5 5 5 5
2 2 2 3 4 6 6 5 2 3 2 1 1 3 4 4 5 5 5 4 4 4 5 5 5 4 3 3 4 3 2 2 3 4 4 5 5 6 6 7 6 6 6 6
1 3 4 4 5 3 2 2 1 2 3 2 2 4 7 6 6 5 5 4 4 4 4 4 5 4 3 3 4 4 1 1 3 3 3 3 4 5 6 7 7 6 6 5
4 2 2 2 2 3 4 4 5 5 5 4 4 4 6 6 4 4 4 4 4 4 3 4 5 4 3 2 3 3 1 1 3 3 2 3 3 3 4 4 5 5 6 6
4 2 1 1 3 4 6 5 4 6 6 6 6 4 4 4 4 2 3 3 3 3 3 4 4 3 2 2 2 2 1 2 3 3 2 2 3 4 4 4 3 4 4 6
2 2 2 4 5 2 3 3 2 5 5 4 5 5 4 3 3 3 1 2 3 4 3 3 3 3 2 3 3 3 1 3 3 2 2 2 2 3 4 5 2 2 1 2
Wind_Direction
336 59 256 250 227 213 222 230 249 234 180 151 174 190 184 177 178 180 183 182 183 184 179 171 170 167 162 163 160 161 162 168 158 147 150 154 174 176 180 193 194 187 190 183
360 280 248 248 259 254 235 243 269 296 145 138 152 188 191 186 191 188 185 184 182 174 169 171 170 169 170 171 169 167 171 171 170 171 168 164 165 182 188 196 195 193 188 184
228 248 263 268 272 269 273 195 208 188 54 74 108 350 261 221 201 195 192 184 179 179 176 175 173 175 173 176 176 176 175 173 173 167 151 133 114 103 130 186 208 206 191 191
249 255 265 272 264 219 266 247 183 143 101 284 134 178 263 230 223 200 190 183 183 182 175 174 174 176 180 181 176 170 171 172 174 168 166 167 175 188 204 193 197 209 198 193
266 271 268 258 251 214 224 235 129 138 123 47 18 131 265 224 211 209 191 186 184 182 178 178 180 181 180 176 172 171 168 172 173 173 173 173 183 190 190 184 189 203 204 194
256 268 237 231 252 229 203 34 27 53 76 60 242 156 252 226 206 202 193 185 182 179 177 179 179 172 170 169 170 169 170 175 174 173 173 175 181 183 178 190 191 199 201 210
304 301 286 261 298 327 81 82 30 4 13 255 252 164 235 237 208 189 182 182 176 172 174 173 171 170 172 172 173 172 172 177 178 176 179 183 186 187 191 196 195 192 192 206
242 283 275 246 190 203 179 135 154 192 215 267 314 223 254 250 204 178 175 175 170 170 173 178 178 174 174 175 174 173 174 177 178 180 184 186 187 190 199 198 191 193 200 208
202 252 278 262 222 164 162 167 168 146 160 43 301 304 334 37 109 140 159 162 172 174 175 181 181 176 175 175 177 176 177 180 183 183 181 185 186 187 192 193 190 195 204 209
180 240 283 297 355 243 169 155 95 112 141 211 301 273 223 212 176 160 165 171 176 171 171 178 179 177 176 176 176 176 178 182 184 183 184 187 187 187 184 178 183 194 202 211
156 183 295 356 179 238 205 115 114 126 149 152 210 264 224 200 190 179 180 175 172 172 175 178 175 172 170 172 173 175 179 180 182 183 184 183 186 186 183 187 188 191 195 197
126 135 245 267 266 224 183 180 146 155 204 159 163 257 253 189 172 162 168 169 168 172 174 171 167 165 166 170 173 176 182 184 187 184 183 186 185 183 185 191 195 189 188 190
82 102 52 340 343 359 12 327 144 139 129 150 163 251 277 150 150 156 157 158 155 163 164 160 160 168 173 176 176 179 185 187 185 180 182 184 183 184 190 192 190 185 184 186
80 92 148 190 227 273 311 315 328 119 152 198 203 218 258 172 163 164 161 158 154 169 167 165 169 177 179 182 179 179 187 186 181 179 181 184 187 187 187 184 182 181 179 178
69 80 79 246 264 294 295 305 308 245 194 193 214 200 220 198 174 167 160 149 149 169 172 172 176 184 187 182 178 178 181 181 179 179 185 190 187 182 178 178 178 173 169 171
50 75 28 352 346 348 327 315 313 300 261 211 164 235 234 173 125 125 135 137 145 157 163 165 170 174 182 184 183 180 180 181 177 181 189 185 177 176 176 174 169 165 164 163
36 73 48 321 327 1 305 291 320 325 310 175 190 235 216 118 129 149 150 138 144 154 153 149 155 166 180 185 177 185 184 176 176 182 184 181 177 176 175 173 165 168 168 160
143 103 118 357 16 254 249 281 57 48 355 58 119 151 131 139 137 121 127 132 137 150 145 146 147 147 154 163 167 173 173 170 174 177 179 180 178 177 171 166 169 173 168 164
158 147 137 136 227 276 297 318 356 58 346 358 86 88 84 100 84 61 66 120 131 128 133 151 147 135 129 144 163 148 153 161 168 179 183 182 178 173 170 173 177 175 164 162
82 123 140 161 196 237 259 304 321 89 319 327 90 120 118 96 105 185 202 110 95 90 99 115 123 115 125 144 143 139 157 164 177 186 187 181 176 171 170 174 173 167 161 162
15 56 162 189 215 254 281 317 3 126 229 292 124 136 143 158 179 167 127 94 94 92 93 95 105 110 141 152 130 137 158 183 186 175 171 166 168 169 165 163 164 161 159 156
193 157 194 171 203 253 318 13 60 230 267 355 53 97 102 104 100 98 95 93 100 95 85 93 93 75 71 98 109 124 154 184 152 146 154 159 162 167 163 160 164 161 160 161
136 183 190 192 212 257 343 109 185 122 73 35 44 84 98 98 100 93 86 90 95 89 79 86 98 87 69 87 114 121 123 123 124 127 150 158 162 164 163 164 164 161 163 170
328 15 73 12 319 342 16 34 35 62 68 48 55 63 84 91 95 96 95 94 97 89 84 78 80 82 74 73 96 127 167 141 128 142 152 148 146 149 149 153 161 167 174 179
281 343 30 308 294 355 13 19 36 48 51 48 44 51 66 73 68 81 115 117 117 106 100 100 101 102 93 73 73 76 104 129 124 123 126 143 159 159 157 154 163 178 192 196
247 201 191 240 249 213 266 290 36 62 54 50 53 46 45 75 53 27 100 146 141 131 128 118 107 102 89 77 66 50 65 120 121 122 139 158 175 175 167 157 135 64 166 176
Height
1499 1506 1511 1506 1503 1505 1507 1509 1511 1504 1497 1503 1509 1510 1508 1510 1513 1515 1517 1519 1521 1523 1526 1529 1531 1533 1536 1537 1539 1541 1542 1544 1546 1547 1548 1549 1550 1551 1552 1553 1553 1554 1555 1555
1507 1510 1499 1495 1495 1497 1502 1507 1507 1502 1496 1502 1510 1511 1507 1507 1508 1509 1512 1515 1518 1522 1525 1527 1530 1532 1534 1536 1537 1539 1541 1542 1544 1545 1547 1548 1549 1550 1551 1552 1552 1553 1553 1554
1509 1501 1492 1493 1496 1499 1501 1505 1505 1505 1502 1502 1510 1520 1513 1507 1506 1509 1510 1512 1515 1518 1521 1524 1527 1529 1532 1534 1535 1537 1539 1541 1542 1544 1546 1547 1548 1549 1550 1550 1551 1552 1552 1553
1501 1493 1492 1494 1495 1496 1506 1494 1495 1499 1512 1522 1516 1538 1521 1511 1509 1507 1509 1511 1514 1517 1519 1522 1524 1527 1529 1531 1534 1536 1537 1539 1541 1542 1544 1545 1546 1547 1548 1549 1549 1550 1551 1551
1500 1491 1492 1495 1491 1489 1493 1487 1492 1498 1511 1523 1521 1533 1526 1512 1512 1507 1505 1507 1510 1513 1516 1519 1521 1524 1527 1530 1532 1534 1536 1537 1539 1540 1542 1543 1544 1545 1546 1547 1548 1548 1549 1549
1492 1486 1487 1487 1483 1483 1484 1491 1499 1509 1521 1538 1524 1531 1530 1514 1506 1502 1501 1504 1507 1510 1514 1517 1519 1522 1525 1528 1530 1532 1534 1535 1537 1538 1539 1541 1542 1543 1544 1545 1546 1546 1547 1547
1498 1488 1482 1481 1486 1485 1489 1513 1536 1538 1549 1543 1522 1525 1523 1500 1494 1494 1496 1500 1504 1508 1511 1514 1518 1520 1523 1525 1527 1530 1532 1533 1535 1536 1537 1539 1540 1541 1542 1543 1544 1544 1545 1545
1510 1508 1486 1480 1485 1492 1493 1509 1537 1548 1551 1542 1524 1524 1509 1491 1489 1491 1494 1497 1502 1506 1509 1512 1514 1517 1520 1523 1525 1527 1529 1531 1532 1534 1535 1537 1538 1539 1540 1541 1542 1542 1543 1544
1508 1506 1482 1477 1476 1482 1492 1503 1507 1528 1534 1542 1533 1517 1503 1492 1491 1492 1495 1497 1500 1503 1506 1510 1513 1515 1518 1520 1523 1525 1527 1529 1530 1532 1533 1535 1536 1537 1538 1539 1540 1540 1541 1541
1493 1501 1487 1478 1475 1477 1482 1491 1512 1528 1545 1550 1537 1527 1520 1503 1497 1494 1495 1496 1498 1501 1505 1508 1511 1513 1516 1519 1521 1523 1525 1527 1528 1530 1531 1532 1533 1535 1536 1537 1537 1538 1539 1539
1486 1500 1494 1486 1486 1489 1486 1492 1507 1524 1529 1546 1548 1533 1498 1495 1493 1493 1493 1494 1496 1498 1501 1505 1508 1511 1514 1517 1519 1521 1523 1525 1526 1527 1529 1530 1531 1533 1534 1535 1535 1536 1537 1537
1486 1499 1506 1494 1482 1477 1482 1489 1503 1521 1526 1531 1537 1527 1487 1487 1487 1489 1491 1493 1496 1498 1500 1503 1507 1509 1512 1514 1516 1519 1521 1523 1524 1525 1527 1528 1529 1531 1532 1533 1534 1534 1535 1535
1486 1501 1515 1510 1501 1489 1487 1487 1493 1505 1518 1529 1534 1519 1486 1486 1487 1487 1489 1492 1495 1498 1500 1503 1505 1508 1510 1512 1514 1516 1517 1520 1522 1523 1525 1526 1527 1528 1530 1531 1531 1532 1532 1533
1482 1500 1511 1517 1511 1498 1494 1489 1489 1501 1518 1520 1516 1506 1492 1488 1487 1487 1487 1489 1492 1496 1499 1501 1503 1505 1507 1510 1511 1513 1516 1518 1519 1521 1522 1523 1524 1526 1527 1528 1529 1529 1530 1530
1486 1501 1499 1498 1492 1489 1489 1488 1487 1492 1498 1506 1501 1498 1491 1487 1485 1485 1486 1487 1491 1494 1497 1498 1501 1503 1505 1507 1508 1510 1512 1515 1517 1518 1519 1520 1522 1523 1525 1526 1527 1527 1527 1527
1492 1501 1501 1500 1491 1489 1489 1485 1484 1485 1486 1490 1491 1493 1484 1483 1484 1486 1487 1488 1490 1492 1494 1496 1498 1500 1503 1504 1506 1508 1509 1512 1514 1516 1517 1518 1519 1521 1522 1523 1524 1525 1525 1525
1498 1503 1510 1512 1500 1494 1500 1488 1485 1486 1484 1485 1493 1490 1483 1483 1484 1485 1487 1488 1489 1491 1493 1494 1496 1498 1500 1503 1503 1505 1506 1508 1510 1512 1514 1515 1516 1518 1519 1521 1522 1523 1523 1523
1498 1505 1513 1515 1509 1515 1499 1482 1480 1483 1483 1481 1482 1483 1482 1482 1482 1484 1486 1487 1489 1490 1491 1492 1494 1496 1498 1500 1502 1503 1504 1506 1507 1508 1510 1512 1513 1515 1516 1517 1518 1519 1520 1520
1489 1500 1512 1519 1518 1509 1493 1483 1481 1486 1490 1484 1483 1482 1482 1482 1482 1486 1486 1486 1487 1489 1491 1492 1492 1493 1495 1498 1500 1501 1501 1503 1504 1505 1506 1508 1509 1510 1512 1513 1515 1515 1516 1517
1489 1494 1508 1515 1517 1516 1498 1482 1478 1482 1494 1485 1482 1482 1482 1482 1488 1489 1487 1486 1486 1487 1489 1491 1492 1493 1494 1496 1498 1499 1500 1501 1501 1502 1503 1505 1506 1506 1507 1509 1511 1512 1513 1514
1500 1502 1507 1512 1514 1505 1490 1482 1479 1495 1496 1485 1483 1481 1482 1483 1484 1486 1487 1486 1486 1486 1487 1489 1490 1491 1493 1495 1496 1497 1497 1498 1499 1500 1501 1502 1503 1504 1505 1507 1508 1508 1510 1511
1502 1507 1509 1511 1514 1509 1488 1484 1490 1491 1486 1485 1483 1482 1483 1482 1483 1484 1485 1486 1486 1487 1488 1488 1490 1490 1492 1494 1494 1493 1494 1495 1497 1498 1499 1500 1501 1502 1503 1504 1505 1506 1507 1508
1500 1501 1502 1503 1503 1494 1488 1488 1487 1486 1486 1485 1484 1482 1482 1482 1483 1484 1484 1485 1486 1486 1488 1488 1488 1490 1492 1493 1493 1493 1493 1492 1493 1495 1495 1497 1498 1499 1500 1501 1502 1503 1504 1505
1498 1495 1498 1499 1495 1492 1490 1488 1487 1485 1485 1486 1485 1485 1483 1483 1484 1484 1484 1484 1485 1485 1487 1488 1488 1489 1490 1490 1491 1491 1490 1490 1491 1492 1493 1494 1495 1496 1497 1498 1499 1500 1500 1501
1500 1497 1499 1499 1495 1492 1490 1490 1488 1485 1486 1486 1485 1485 1485 1485 1485 1484 1483 1483 1483 1484 1485 1487 1488 1488 1488 1488 1489 1489 1489 1489 1490 1490 1490 1491 1492 1493 1494 1495 1495 1496 1497 1498
1497 1498 1499 1499 1494 1493 1492 1490 1487 1485 1485 1485 1485 1485 1484 1484 1484 1485 1484 1483 1483 1483 1484 1485 1486 1486 1486 1486 1486 1486 1486 1486 1487 1487 1488 1488 1489 1489 1490 1491 1492 1494 1494 1495